Powrót do katalogu

STARLINK-3550

AktywnyŁącznośćVLEO
NORAD 52373·PAYLOAD·🇺🇸 United States

Wystrzelony Apr 29, 2022 z Cape Canaveral Space Force Station

Loading…

Następne Przeloty (najbliższe 24 godziny)

TLE

ŚwieżeSource: CelesTrak SupGP

Epoka: Sep 15, 2026, 01:29 UTC

1 52373C 22045AU  26258.06229167 -.00035508  00000+0 -10493-2 0  2588
2 52373  53.1602  43.0723 0001074  87.3370 198.1003 15.34401737    16

Śledź STARLINK-3550 w czasie rzeczywistym z AllMySat

Download on the App Store